Location: CNYAC Observatory
(43.2150°N, 74.9500°W)
Time: 03:50:40
(UTC-04:00)

Cosmos 1975 Rocket - Visible Passes

Search period start: 24 April 2014 00:00
Search period end: 04 May 2014 00:00
Orbit: 607 x 635 km, 82.5° (Epoch: 23 April)

Date Brightness Start Highest point End Pass type
(mag) Time Alt. Az. Time Alt. Az. Time Alt. Az.
24 Apr 3.1 20:28:44 10° S 20:33:07 89° W 20:37:36 10° N visible
25 Apr 4.3 20:46:53 10° SSW 20:51:07 47° WNW 20:55:26 10° N visible
26 Apr 5.5 21:05:32 10° SW 21:09:14 26° WNW 21:12:58 10° NNW visible
27 Apr 6.2 21:24:56 10° WSW 21:27:27 15° WNW 21:29:59 10° NNW visible
30 Apr 5.9 20:39:39 10° SW 20:43:13 23° WNW 20:46:50 10° NNW visible
01 May 7.1 05:11:51 10° ENE 05:12:20 10° ENE 05:12:49 10° ENE visible
01 May 6.5 20:59:15 10° W 21:01:27 13° WNW 21:03:40 10° NW visible
